Time,TemperatureF,DewpointF,PressureIn,WindDirection,WindDirectionDegrees,WindSpeedMPH,WindSpeedGustMPH,Humidity,HourlyPrecipIn,Conditions,Clouds,dailyrainin,SoftwareType,DateUTC
2013-01-23 00:01:00,46.0,38.0,30.08,North,351,1.0,-999.0,74,-99.99,,,-99.99,,2013-01-23 08:01:00,
2013-01-23 00:12:00,46.0,38.0,30.08,North,351,1.0,-999.0,74,-99.99,,,-99.99,,2013-01-23 08:12:00,
2013-01-23 00:22:00,46.0,39.0,30.08,North,351,1.0,-999.0,76,-99.99,,,-99.99,,2013-01-23 08:22:00,
2013-01-23 00:32:00,46.0,39.0,30.08,North,351,0.0,-999.0,76,-99.99,,,-99.99,,2013-01-23 08:32:00,
2013-01-23 00:42:00,46.0,39.0,30.08,North,351,0.0,-999.0,76,-99.99,,,-99.99,,2013-01-23 08:42:00,
2013-01-23 00:53:00,45.0,38.0,30.08,North,351,1.0,-999.0,76,-99.99,,,-99.99,,2013-01-23 08:53:00,
2013-01-23 01:02:00,45.0,39.0,30.07,North,351,2.0,-999.0,78,-99.99,,,-99.99,,2013-01-23 09:02:00,
2013-01-23 01:12:00,45.0,39.0,30.07,North,351,2.0,-999.0,78,-99.99,,,-99.99,,2013-01-23 09:12:00,
2013-01-23 01:22:00,45.0,39.0,30.07,North,351,0.0,-999.0,78,-99.99,,,-99.99,,2013-01-23 09:22:00,
2013-01-23 01:32:00,45.0,39.0,30.07,North,351,2.0,-999.0,80,-99.99,,,-99.99,,2013-01-23 09:32:00,
2013-01-23 01:43:00,45.0,39.0,30.07,North,351,2.0,-999.0,80,-99.99,,,-99.99,,2013-01-23 09:43:00,
2013-01-23 01:53:00,45.0,40.0,30.07,North,351,1.0,-999.0,81,-99.99,,,-99.99,,2013-01-23 09:53:00,
2013-01-23 02:02:00,45.0,40.0,30.07,North,351,1.0,-999.0,81,-99.99,,,-99.99,,2013-01-23 10:02:00,
2013-01-23 02:12:00,45.0,40.0,30.07,North,351,1.0,-999.0,81,-99.99,,,-99.99,,2013-01-23 10:12:00,
2013-01-23 02:22:00,45.0,40.0,30.07,North,351,0.0,-999.0,81,-99.99,,,-99.99,,2013-01-23 10:22:00,
2013-01-23 02:32:00,45.0,40.0,30.06,North,351,1.0,-999.0,82,-99.99,,,-99.99,,2013-01-23 10:32:00,
2013-01-23 02:42:00,45.0,40.0,30.06,North,351,1.0,-999.0,82,-99.99,,,-99.99,,2013-01-23 10:42:00,
2013-01-23 02:53:00,45.0,40.0,30.06,North,351,0.0,-999.0,83,-99.99,,,-99.99,,2013-01-23 10:53:00,
2013-01-23 03:02:00,45.0,40.0,30.06,North,351,2.0,-999.0,84,-99.99,,,-99.99,,2013-01-23 11:02:00,
2013-01-23 03:11:00,45.0,40.0,30.06,North,351,2.0,-999.0,84,-99.99,,,-99.99,,2013-01-23 11:11:00,
2013-01-23 03:22:00,45.0,41.0,30.05,North,351,2.0,-999.0,85,-99.99,,,-99.99,,2013-01-23 11:22:00,
2013-01-23 03:32:00,45.0,40.0,30.06,North,351,1.0,-999.0,84,-99.99,,,-99.99,,2013-01-23 11:32:00,
2013-01-23 03:42:00,45.0,40.0,30.06,North,351,1.0,-999.0,84,-99.99,,,-99.99,,2013-01-23 11:42:00,
2013-01-23 03:53:00,45.0,41.0,30.04,North,351,3.0,-999.0,85,-99.99,,,-99.99,,2013-01-23 11:53:00,
2013-01-23 04:02:00,45.0,41.0,30.02,North,351,3.0,-999.0,85,-99.99,,,-99.99,,2013-01-23 12:02:00,
2013-01-23 04:12:00,45.0,41.0,30.02,North,351,3.0,-999.0,85,-99.99,,,-99.99,,2013-01-23 12:12:00,
2013-01-23 04:22:00,45.0,41.0,30.02,North,351,3.0,-999.0,85,-99.99,,,-99.99,,2013-01-23 12:22:00,
2013-01-23 04:32:00,45.0,40.0,30.05,North,351,0.0,-999.0,84,-99.99,,,-99.99,,2013-01-23 12:32:00,
2013-01-23 04:42:00,45.0,40.0,30.05,North,351,0.0,-999.0,84,-99.99,,,-99.99,,2013-01-23 12:42:00,
2013-01-23 04:53:00,45.0,40.0,30.03,North,351,2.0,-999.0,84,-99.99,,,-99.99,,2013-01-23 12:53:00,
2013-01-23 05:03:00,45.0,40.0,30.02,North,351,2.0,-999.0,84,-99.99,,,-99.99,,2013-01-23 13:03:00,
2013-01-23 05:12:00,45.0,40.0,30.02,North,351,2.0,-999.0,84,-99.99,,,-99.99,,2013-01-23 13:12:00,
2013-01-23 05:22:00,45.0,40.0,30.02,North,351,2.0,-999.0,84,-99.99,,,-99.99,,2013-01-23 13:22:00,
2013-01-23 05:33:00,45.0,40.0,30.02,North,350,3.0,-999.0,83,-99.99,,,-99.99,,2013-01-23 13:33:00,
2013-01-23 05:42:00,45.0,40.0,30.02,North,350,3.0,-999.0,83,-99.99,,,-99.99,,2013-01-23 13:42:00,
2013-01-23 05:53:00,45.0,40.0,30.02,North,350,3.0,-999.0,83,-99.99,,,-99.99,,2013-01-23 13:53:00,
2013-01-23 06:02:00,45.0,40.0,30.01,North,350,3.0,-999.0,83,-99.99,,,-99.99,,2013-01-23 14:02:00,
2013-01-23 06:12:00,45.0,40.0,30.01,North,350,3.0,-999.0,83,-99.99,,,-99.99,,2013-01-23 14:12:00,
2013-01-23 06:23:00,45.0,40.0,30.01,North,350,3.0,-999.0,83,-99.99,,,-99.99,,2013-01-23 14:23:00,
2013-01-23 06:33:00,45.0,40.0,30.01,North,349,2.0,-999.0,83,-99.99,,,-99.99,,2013-01-23 14:33:00,
2013-01-23 06:42:00,45.0,40.0,30.01,North,349,2.0,-999.0,83,-99.99,,,-99.99,,2013-01-23 14:42:00,
2013-01-23 06:53:00,45.0,40.0,30.01,North,349,3.0,-999.0,83,-99.99,,,-99.99,,2013-01-23 14:53:00,
2013-01-23 07:02:00,45.0,40.0,30.03,NNW,348,3.0,-999.0,84,-99.99,,,-99.99,,2013-01-23 15:02:00,
2013-01-23 07:12:00,45.0,40.0,30.03,NNW,348,3.0,-999.0,84,-99.99,,,-99.99,,2013-01-23 15:12:00,
2013-01-23 07:22:00,45.0,40.0,30.03,NNW,347,1.0,-999.0,83,-99.99,,,-99.99,,2013-01-23 15:22:00,
2013-01-23 07:32:00,45.0,40.0,30.03,NNW,347,1.0,-999.0,83,-99.99,,,-99.99,,2013-01-23 15:32:00,
2013-01-23 07:43:00,45.0,40.0,30.03,NNW,347,1.0,-999.0,83,-99.99,,,-99.99,,2013-01-23 15:43:00,
2013-01-23 07:53:00,45.0,40.0,30.02,NNW,347,2.0,-999.0,82,-99.99,,,-99.99,,2013-01-23 15:53:00,
2013-01-23 08:02:00,45.0,40.0,30.02,NNW,347,3.0,-999.0,81,-99.99,,,-99.99,,2013-01-23 16:02:00,
2013-01-23 08:12:00,45.0,40.0,30.02,NNW,347,3.0,-999.0,81,-99.99,,,-99.99,,2013-01-23 16:12:00,
2013-01-23 08:22:00,45.0,40.0,30.03,NNW,347,3.0,-999.0,81,-99.99,,,-99.99,,2013-01-23 16:22:00,
2013-01-23 08:32:00,45.0,40.0,30.03,NNW,347,3.0,-999.0,81,-99.99,,,-99.99,,2013-01-23 16:32:00,
2013-01-23 08:42:00,45.0,40.0,30.03,NNW,347,3.0,-999.0,81,-99.99,,,-99.99,,2013-01-23 16:42:00,
2013-01-23 08:52:00,46.0,41.0,30.03,NNW,347,3.0,-999.0,82,-99.99,,,-99.99,,2013-01-23 16:52:00,
2013-01-23 09:02:00,46.0,41.0,30.05,NNW,347,3.0,-999.0,82,-99.99,,,-99.99,,2013-01-23 17:02:00,
2013-01-23 09:12:00,46.0,41.0,30.05,NNW,347,3.0,-999.0,82,-99.99,,,-99.99,,2013-01-23 17:12:00,
2013-01-23 09:22:00,46.0,41.0,30.05,NNW,347,1.0,-999.0,82,-99.99,,,-99.99,,2013-01-23 17:22:00,
2013-01-23 09:33:00,47.0,42.0,30.06,NNW,347,1.0,-999.0,82,-99.99,,,-99.99,,2013-01-23 17:33:00,
2013-01-23 09:42:00,47.0,42.0,30.06,NNW,347,1.0,-999.0,82,-99.99,,,-99.99,,2013-01-23 17:42:00,
2013-01-23 09:53:00,47.0,41.0,30.06,NNW,346,2.0,-999.0,80,-99.99,,,-99.99,,2013-01-23 17:53:00,
2013-01-23 10:03:00,48.0,42.0,30.07,NNW,346,3.0,-999.0,79,-99.99,,,-99.99,,2013-01-23 18:03:00,
2013-01-23 10:12:00,48.0,42.0,30.07,NNW,346,3.0,-999.0,79,-99.99,,,-99.99,,2013-01-23 18:12:00,
2013-01-23 10:22:00,48.0,42.0,30.08,NNW,346,2.0,-999.0,80,-99.99,,,-99.99,,2013-01-23 18:22:00,
2013-01-23 10:32:00,48.0,42.0,30.08,NNW,346,2.0,-999.0,80,-99.99,,,-99.99,,2013-01-23 18:32:00,
2013-01-23 10:43:00,49.0,43.0,30.09,NNW,346,1.0,-999.0,79,-99.99,,,-99.99,,2013-01-23 18:43:00,
2013-01-23 10:53:00,49.0,43.0,30.09,NNW,346,3.0,-999.0,79,-99.99,,,-99.99,,2013-01-23 18:53:00,
2013-01-23 11:02:00,50.0,43.0,30.08,NNW,346,2.0,-999.0,78,-99.99,,,-99.99,,2013-01-23 19:02:00,
2013-01-23 11:12:00,50.0,43.0,30.08,NNW,346,2.0,-999.0,78,-99.99,,,-99.99,,2013-01-23 19:12:00,
2013-01-23 11:22:00,50.0,43.0,30.09,NNW,346,2.0,-999.0,76,-99.99,,,-99.99,,2013-01-23 19:22:00,
2013-01-23 11:32:00,50.0,43.0,30.09,NNW,346,2.0,-999.0,76,-99.99,,,-99.99,,2013-01-23 19:32:00,
2013-01-23 11:42:00,50.0,43.0,30.09,NNW,346,2.0,-999.0,76,-99.99,,,-99.99,,2013-01-23 19:42:00,
2013-01-23 11:53:00,51.0,43.0,30.07,NNW,346,3.0,-999.0,74,-99.99,,,-99.99,,2013-01-23 19:53:00,
2013-01-23 12:02:00,52.0,44.0,30.07,NNW,346,2.0,-999.0,75,-99.99,,,-99.99,,2013-01-23 20:02:00,
2013-01-23 12:12:00,52.0,44.0,30.07,NNW,346,2.0,-999.0,75,-99.99,,,-99.99,,2013-01-23 20:12:00,
2013-01-23 12:22:00,52.0,44.0,30.07,NNW,346,2.0,-999.0,75,-99.99,,,-99.99,,2013-01-23 20:22:00,
2013-01-23 12:32:00,53.0,44.0,30.07,NNW,346,1.0,-999.0,72,-99.99,,,-99.99,,2013-01-23 20:32:00,
2013-01-23 12:42:00,53.0,44.0,30.07,NNW,346,1.0,-999.0,72,-99.99,,,-99.99,,2013-01-23 20:42:00,
2013-01-23 12:53:00,53.0,44.0,30.07,NNW,346,1.0,-999.0,71,-99.99,,,-99.99,,2013-01-23 20:53:00,
2013-01-23 13:02:00,53.0,44.0,30.07,NNW,346,1.0,-999.0,72,-99.99,,,-99.99,,2013-01-23 21:02:00,
2013-01-23 13:12:00,53.0,44.0,30.07,NNW,346,1.0,-999.0,72,-99.99,,,-99.99,,2013-01-23 21:12:00,
2013-01-23 13:22:00,54.0,45.0,30.06,NNW,346,1.0,-999.0,72,-99.99,,,-99.99,,2013-01-23 21:22:00,
2013-01-23 13:32:00,54.0,46.0,30.06,NNW,346,1.0,-999.0,73,-99.99,,,-99.99,,2013-01-23 21:32:00,
2013-01-23 13:42:00,54.0,46.0,30.06,NNW,346,1.0,-999.0,73,-99.99,,,-99.99,,2013-01-23 21:42:00,
2013-01-23 13:53:00,54.0,45.0,30.06,NNW,348,1.0,-999.0,72,-99.99,,,-99.99,,2013-01-23 21:53:00,
2013-01-23 14:02:00,54.0,46.0,30.06,NNW,348,0.0,-999.0,73,-99.99,,,-99.99,,2013-01-23 22:02:00,
2013-01-23 14:12:00,54.0,46.0,30.06,NNW,348,0.0,-999.0,73,-99.99,,,-99.99,,2013-01-23 22:12:00,
2013-01-23 14:22:00,54.0,46.0,30.06,NNW,348,0.0,-999.0,75,-99.99,,,-99.99,,2013-01-23 22:22:00,
2013-01-23 14:33:00,54.0,48.0,30.07,NNW,348,0.0,-999.0,79,-99.99,,,-99.99,,2013-01-23 22:33:00,
2013-01-23 14:42:00,54.0,48.0,30.07,NNW,348,0.0,-999.0,79,-99.99,,,-99.99,,2013-01-23 22:42:00,
2013-01-23 14:53:00,53.0,47.0,30.07,NNW,348,0.0,-999.0,80,-99.99,,,-99.99,,2013-01-23 22:53:00,
2013-01-23 15:02:00,53.0,48.0,30.07,NNW,348,0.0,-999.0,83,-99.99,,,-99.99,,2013-01-23 23:02:00,
2013-01-23 15:12:00,53.0,48.0,30.07,NNW,348,0.0,-999.0,83,-99.99,,,-99.99,,2013-01-23 23:12:00,
2013-01-23 15:22:00,52.0,48.0,30.06,NNW,348,1.0,-999.0,87,-99.99,,,-99.99,,2013-01-23 23:22:00,
2013-01-23 15:33:00,52.0,49.0,30.05,NNW,348,0.0,-999.0,88,-99.99,,,-99.99,,2013-01-23 23:33:00,
2013-01-23 15:42:00,52.0,49.0,30.05,NNW,348,0.0,-999.0,88,-99.99,,,-99.99,,2013-01-23 23:42:00,
2013-01-23 15:53:00,52.0,49.0,30.05,NNW,348,1.0,-999.0,89,-99.99,,,-99.99,,2013-01-23 23:53:00,
2013-01-23 16:02:00,51.0,48.0,30.06,NNW,348,2.0,-999.0,89,-99.99,,,-99.99,,2013-01-24 00:02:00,
2013-01-23 16:12:00,51.0,48.0,30.06,NNW,348,2.0,-999.0,89,-99.99,,,-99.99,,2013-01-24 00:12:00,
2013-01-23 16:22:00,51.0,48.0,30.06,NNW,348,2.0,-999.0,90,-99.99,,,-99.99,,2013-01-24 00:22:00,
2013-01-23 16:32:00,50.0,47.0,30.09,NNW,348,2.0,-999.0,91,-99.99,,,-99.99,,2013-01-24 00:32:00,
2013-01-23 16:42:00,50.0,47.0,30.09,NNW,348,2.0,-999.0,91,-99.99,,,-99.99,,2013-01-24 00:42:00,
2013-01-23 16:53:00,50.0,48.0,30.09,NNW,348,2.0,-999.0,92,-99.99,,,-99.99,,2013-01-24 00:53:00,
2013-01-23 17:02:00,50.0,48.0,30.09,NNW,346,3.0,-999.0,92,-99.99,,,-99.99,,2013-01-24 01:02:00,
2013-01-23 17:12:00,50.0,48.0,30.09,NNW,346,3.0,-999.0,92,-99.99,,,-99.99,,2013-01-24 01:12:00,
2013-01-23 17:22:00,49.0,47.0,30.09,NNW,333,4.0,-999.0,92,-99.99,,,-99.99,,2013-01-24 01:22:00,
2013-01-23 17:32:00,49.0,47.0,30.10,NW,317,6.0,-999.0,92,-99.99,,,-99.99,,2013-01-24 01:32:00,
2013-01-23 17:42:00,49.0,47.0,30.10,NW,317,6.0,-999.0,92,-99.99,,,-99.99,,2013-01-24 01:42:00,
2013-01-23 17:52:00,49.0,47.0,30.09,NW,323,6.0,-999.0,93,-99.99,,,-99.99,,2013-01-24 01:52:00,
2013-01-23 18:02:00,48.0,46.0,30.09,NNW,333,6.0,-999.0,92,-99.99,,,-99.99,,2013-01-24 02:02:00,
2013-01-23 18:11:00,48.0,46.0,30.09,NNW,333,6.0,-999.0,92,-99.99,,,-99.99,,2013-01-24 02:11:00,
2013-01-23 18:22:00,48.0,46.0,30.09,NW,324,5.0,-999.0,92,-99.99,,,-99.99,,2013-01-24 02:22:00,
2013-01-23 18:32:00,48.0,46.0,30.09,NNW,327,4.0,-999.0,93,-99.99,,,-99.99,,2013-01-24 02:32:00,
2013-01-23 18:42:00,48.0,46.0,30.09,NNW,327,4.0,-999.0,93,-99.99,,,-99.99,,2013-01-24 02:42:00,
2013-01-23 18:52:00,48.0,46.0,30.09,NNW,327,4.0,-999.0,93,-99.99,,,-99.99,,2013-01-24 02:52:00,
2013-01-23 19:02:00,48.0,46.0,30.10,NW,320,5.0,-999.0,94,-99.99,,,-99.99,,2013-01-24 03:02:00,
2013-01-23 19:11:00,48.0,46.0,30.10,NW,320,5.0,-999.0,94,-99.99,,,-99.99,,2013-01-24 03:11:00,
2013-01-23 19:22:00,48.0,46.0,30.11,NW,317,4.0,-999.0,94,-99.99,,,-99.99,,2013-01-24 03:22:00,
2013-01-23 19:32:00,48.0,46.0,30.11,NW,316,4.0,-999.0,94,-99.99,,,-99.99,,2013-01-24 03:32:00,
2013-01-23 19:42:00,48.0,46.0,30.11,NW,316,4.0,-999.0,94,-99.99,,,-99.99,,2013-01-24 03:42:00,
2013-01-23 19:52:00,48.0,46.0,30.10,NW,315,6.0,-999.0,94,-99.99,,,-99.99,,2013-01-24 03:52:00,
2013-01-23 20:02:00,47.0,45.0,30.10,NW,324,6.0,-999.0,94,-99.99,,,-99.99,,2013-01-24 04:02:00,
2013-01-23 20:12:00,47.0,45.0,30.10,NW,324,6.0,-999.0,94,-99.99,,,-99.99,,2013-01-24 04:12:00,
2013-01-23 20:22:00,47.0,45.0,30.09,NW,318,7.0,-999.0,94,-99.99,,,-99.99,,2013-01-24 04:22:00,
2013-01-23 20:32:00,47.0,45.0,30.09,NW,315,8.0,-999.0,94,-99.99,,,-99.99,,2013-01-24 04:32:00,
2013-01-23 20:42:00,47.0,45.0,30.09,NW,315,8.0,-999.0,94,-99.99,,,-99.99,,2013-01-24 04:42:00,
2013-01-23 20:52:00,47.0,46.0,30.11,NW,322,7.0,-999.0,95,-99.99,,,-99.99,,2013-01-24 04:52:00,
2013-01-23 21:03:00,47.0,46.0,30.12,NNW,346,5.0,-999.0,95,-99.99,,,-99.99,,2013-01-24 05:03:00,
2013-01-23 21:12:00,47.0,46.0,30.12,NNW,346,5.0,-999.0,95,-99.99,,,-99.99,,2013-01-24 05:12:00,
2013-01-23 21:22:00,47.0,46.0,30.13,North,350,4.0,-999.0,95,-99.99,,,-99.99,,2013-01-24 05:22:00,
2013-01-23 21:32:00,47.0,46.0,30.14,NW,325,6.0,-999.0,95,-99.99,,,-99.99,,2013-01-24 05:32:00,
2013-01-23 21:42:00,47.0,46.0,30.14,NW,325,6.0,-999.0,95,-99.99,,,-99.99,,2013-01-24 05:42:00,
2013-01-23 21:53:00,47.0,46.0,30.14,NW,315,4.0,-999.0,95,-99.99,,,-99.99,,2013-01-24 05:53:00,
2013-01-23 22:02:00,47.0,46.0,30.13,NW,324,6.0,-999.0,95,-99.99,,,-99.99,,2013-01-24 06:02:00,
2013-01-23 22:12:00,47.0,46.0,30.13,NW,324,6.0,-999.0,95,-99.99,,,-99.99,,2013-01-24 06:12:00,
2013-01-23 22:22:00,47.0,46.0,30.13,NW,319,3.0,-999.0,95,-99.99,,,-99.99,,2013-01-24 06:22:00,
2013-01-23 22:32:00,47.0,46.0,30.12,NNW,329,7.0,-999.0,95,-99.99,,,-99.99,,2013-01-24 06:32:00,
2013-01-23 22:42:00,47.0,46.0,30.12,NNW,329,7.0,-999.0,95,-99.99,,,-99.99,,2013-01-24 06:42:00,
2013-01-23 22:52:00,47.0,46.0,30.11,NW,323,8.0,-999.0,95,-99.99,,,-99.99,,2013-01-24 06:52:00,
2013-01-23 23:02:00,47.0,46.0,30.12,NW,324,9.0,-999.0,95,-99.99,,,-99.99,,2013-01-24 07:02:00,
2013-01-23 23:12:00,47.0,46.0,30.12,NW,324,9.0,-999.0,95,-99.99,,,-99.99,,2013-01-24 07:12:00,
2013-01-23 23:22:00,47.0,46.0,30.11,NNW,335,9.0,-999.0,95,-99.99,,,-99.99,,2013-01-24 07:22:00,
2013-01-23 23:32:00,47.0,46.0,30.11,NW,315,9.0,-999.0,95,-99.99,,,-99.99,,2013-01-24 07:32:00,
2013-01-23 23:42:00,47.0,46.0,30.11,NW,315,9.0,-999.0,95,-99.99,,,-99.99,,2013-01-24 07:42:00,
2013-01-23 23:53:00,47.0,46.0,30.11,NW,312,11.0,-999.0,96,-99.99,,,-99.99,,2013-01-24 07:53:00,